Terminal Aerodrome Forecast
Issued by NWS Upton, NY

Home | Current Version | Previous Version | Text Only | Print | Product List | Glossary On
Versions: 1 2 3 4 5 6 7 8 9 10 11 12 13 14 15 16 17 18 19 20 21 22 23 24 25 26 27 28 29 30 31 32 33
000
FTUS41 KOKX 170835 AAB
TAFLGA
TAF AMD
KLGA 170835Z 1709/1806 22007KT P6SM OVC060
     FM171300 VRB04KT 6SM -RA SCT050 OVC100
     FM171700 11007KT 2SM -RA BR BKN010 OVC020
     FM180100 07009KT 1SM -RA BR OVC005=

USA.gov is the U.S. government's official web portal to all federal, state and local government web resources and services.